QPF
0.00 0.00 0.00 0.00 0.00 0.00 0.00 0.00 0.00 0.00 0.00 0.00 0.00 0.01 0.01 0.03 0.05 0.09 0.05 0.06 0.03 0.01
0.00 0.00 0.00 0.00 0.00 0.00 0.00 0.00 0.00 0.00 0.00 0.00 0.01 0.01 0.01 0.01 0.02 0.04 0.05 0.03 0.05 0.04
0.00 0.00 0.00 0.00 0.00 0.00 0.00 0.00 0.00 0.00 0.00 0.00 0.00 0.00 0.00 0.00 0.01 0.02 0.05 0.04 0.03 0.02
0.00 0.00 0.00 0.00 0.00 0.00 0.00 0.00 0.00 0.00 0.00 0.00 0.00 0.00 0.00 0.00 0.00 0.02 0.02 0.05 0.03 0.03
0.00 0.00 0.00 0.00 0.00 0.00 0.00 0.00 0.00 0.00 0.00 0.00 0.00 0.00 0.00 0.00 0.00 0.00 0.01 0.03 0.03 0.02
0.00 0.00 0.00 0.00 0.00 0.00 0.00 0.00 0.00 0.00 0.00 0.00 0.00 0.00 0.00 0.00 0.00 0.00 0.00 0.02 0.05 0.05
0.00 0.00 0.00 0.00 0.00 0.00 0.00 0.00 0.00 0.01 0.00 0.00 0.00 0.00 0.00 0.00 0.00 0.00 0.00 0.00 0.02 0.03
0.00 0.00 0.00 0.00 0.00 0.01 0.01 0.01 0.00 0.00 0.00 0.00 0.00 0.00 0.00 0.00 0.00 0.00 0.00 0.00 0.01 0.02
0.00 0.00 0.00 0.01 0.01 0.01 0.01 0.01 0.01 0.00 0.00 0.00 0.00 0.00 0.00 0.00 0.00 0.00 0.00 0.00 0.00 0.02
0.00 0.00 0.01 0.01 0.00 0.00 0.00 0.00 0.00 0.00 0.00 0.00 0.00 0.00 0.00 0.00 0.00 0.00 0.01 0.01 0.01 0.01
0.00 0.00 0.00 0.00 0.00 0.00 0.00 0.00 0.00 0.00 0.00 0.00 0.00 0.00 0.00 0.00 0.00 0.00 0.00 0.00 0.00 0.01
0.00 0.00 0.00 0.01 0.00 0.00 0.00 0.00 0.00 0.00 0.00 0.00 0.00 0.00 0.00 0.00 0.00 0.00 0.00 0.00 0.00 0.01
0.00 0.00 0.00 0.00 0.00 0.00 0.00 0.00 0.00 0.00 0.00 0.00 0.00 0.00 0.00 0.00 0.00 0.00 0.00 0.00 0.00 0.01
0.00 0.00 0.00 0.00 0.00 0.00 0.00 0.00 0.00 0.00 0.00 0.00 0.00 0.00 0.00 0.00 0.00 0.00 0.00 0.00 0.00 0.00
MSLP
1026.25 1025.82 1025.37 1024.79 1024.20 1023.59 1022.96 1022.56 1021.41 1021.11 1020.49 1020.11 1019.28 1018.61 1017.97 1017.58 1017.03 1016.52 1015.98 1016.17 1016.51 1017.00
1026.37 1025.87 1025.46 1024.81 1024.30 1023.82 1023.28 1022.60 1022.43 1021.44 1020.61 1020.11 1019.41 1019.13 1018.66 1018.12 1017.51 1016.93 1016.25 1016.03 1016.27 1016.51
1026.45 1025.95 1025.38 1024.85 1024.37 1023.78 1023.12 1022.59 1022.09 1021.09 1021.06 1020.81 1020.13 1019.76 1019.05 1018.76 1018.11 1017.42 1016.81 1015.95 1016.05 1016.35
1026.51 1026.03 1025.56 1025.06 1024.57 1024.05 1023.33 1022.75 1022.28 1021.92 1021.70 1021.20 1020.48 1020.38 1019.61 1019.08 1018.60 1018.18 1017.56 1016.79 1015.96 1015.98
1026.62 1026.09 1025.67 1025.29 1024.70 1024.21 1023.55 1022.99 1022.54 1022.08 1021.85 1021.57 1021.37 1020.87 1020.14 1019.74 1019.35 1018.87 1018.21 1017.37 1016.87 1016.49
1026.78 1026.17 1025.69 1025.33 1024.78 1024.21 1023.61 1023.10 1022.61 1022.66 1022.49 1022.24 1022.00 1021.52 1021.01 1020.34 1019.71 1019.18 1018.54 1017.95 1017.51 1017.13
1026.99 1026.40 1025.79 1025.36 1024.92 1024.46 1023.83 1023.38 1023.20 1023.22 1023.08 1022.73 1022.35 1021.97 1021.51 1020.85 1020.10 1019.39 1018.64 1018.36 1017.81 1017.50
1027.05 1026.54 1026.04 1025.58 1025.20 1024.78 1024.33 1023.92 1023.90 1023.74 1023.59 1023.28 1022.78 1022.40 1021.61 1020.86 1020.22 1019.57 1019.07 1018.50 1018.19 1018.29
1027.00 1026.70 1026.39 1025.87 1025.62 1025.25 1024.97 1024.75 1024.60 1024.51 1024.27 1023.83 1023.45 1022.92 1021.87 1021.03 1020.53 1020.03 1019.89 1019.33 1019.23 1018.76
1027.07 1026.76 1026.58 1026.25 1026.04 1025.81 1025.52 1025.21 1025.41 1025.37 1024.96 1024.43 1023.88 1023.26 1022.48 1021.77 1021.17 1020.83 1020.51 1020.28 1020.17 1019.67
1027.23 1026.94 1026.72 1026.50 1026.42 1026.20 1025.95 1025.78 1025.81 1025.78 1025.56 1025.07 1024.41 1023.91 1023.12 1022.41 1022.02 1021.71 1021.55 1021.42 1021.18 1020.73
1027.45 1027.19 1026.94 1026.82 1026.73 1026.59 1026.47 1026.34 1026.36 1026.34 1026.16 1025.81 1025.26 1024.43 1023.58 1023.07 1022.69 1022.45 1022.32 1022.20 1021.87 1021.46
1027.59 1027.45 1027.33 1027.22 1027.21 1027.16 1027.03 1026.95 1026.87 1026.74 1026.51 1026.24 1025.86 1025.01 1024.21 1023.72 1023.46 1023.18 1022.97 1022.82 1022.60 1022.31
1027.62 1027.61 1027.73 1027.68 1027.58 1027.55 1027.51 1027.41 1027.30 1027.15 1026.93 1026.66 1026.31 1025.76 1024.99 1024.59 1024.25 1023.96 1023.88 1023.74 1023.56 1023.35
Thickness
5384 5399 5415 5432 5447 5462 5477 5490 5508 5521 5534 5544 5558 5569 5580 5590 5600 5608 5615 5616 5617 5618
5368 5385 5401 5417 5432 5447 5462 5476 5486 5505 5523 5535 5547 5557 5568 5578 5589 5599 5609 5613 5613 5615
5348 5369 5387 5404 5418 5433 5449 5464 5477 5496 5505 5519 5533 5543 5555 5565 5576 5587 5597 5610 5611 5611
5333 5351 5371 5388 5402 5417 5432 5449 5463 5477 5490 5505 5519 5527 5541 5553 5563 5571 5583 5594 5608 5609
5323 5337 5353 5370 5387 5402 5418 5432 5447 5464 5478 5490 5500 5512 5526 5537 5546 5556 5567 5580 5590 5599
5316 5326 5339 5354 5371 5387 5403 5418 5433 5447 5460 5471 5482 5494 5507 5520 5533 5544 5555 5566 5575 5584
5313 5321 5330 5343 5357 5372 5386 5402 5417 5429 5441 5455 5467 5478 5489 5504 5517 5530 5543 5551 5561 5570
5314 5320 5326 5333 5343 5356 5371 5385 5397 5411 5423 5436 5450 5462 5475 5489 5503 5516 5529 5540 5548 5555
5316 5319 5322 5329 5333 5341 5353 5365 5379 5389 5402 5416 5431 5444 5461 5476 5488 5500 5509 5520 5528 5541
5317 5319 5321 5324 5327 5331 5338 5349 5357 5368 5381 5396 5411 5426 5444 5458 5471 5481 5490 5500 5508 5520
5318 5319 5320 5321 5321 5324 5328 5333 5340 5350 5362 5377 5392 5406 5424 5437 5450 5460 5468 5477 5486 5497
5317 5318 5319 5318 5317 5318 5319 5321 5325 5331 5343 5355 5370 5389 5403 5416 5427 5438 5447 5457 5467 5478
5317 5317 5316 5315 5313 5311 5312 5312 5315 5319 5326 5337 5348 5365 5382 5396 5406 5418 5428 5437 5446 5456
5316 5315 5313 5311 5310 5309 5307 5306 5306 5309 5314 5322 5330 5341 5357 5372 5384 5395 5403 5413 5422 5432